Location: Boss Branch
(32.3799°N, 97.2508°W)
Time: 22:43:39
(UTC+00:00)

JUGNU - Pass Details

Date: 09 December 2024
Orbit: 834 x 861 km, 20.0° (Epoch: 19 January)

Event Time Altitude Azimuth Distance (km) Brightness Sun altitude
Exits shadow 11:45:08 11° 226° (SW) 2,355 ? -19.4°
Maximum altitude 11:49:20 23° 177° (S) 1,691 ? -18.5°
Drops below altitude 10° 11:53:49 10° 126° (SE) 2,429 ? -17.6°
Sets 11:56:52 0° 112° (ESE) 3,366 ? -17.0°
